Location: Central Falls
(41.8900°N, 71.3929°W)
Time: 13:08:00
(UTC+00:00)

A-11 Canister half - Pass Details

Date: 08 December 2023
Orbit: 1512 x 1687 km, 47.2° (Epoch: 20 February)

Event Time Altitude Azimuth Distance (km) Brightness Sun altitude
Rises 04:36:34 0° 242° (WSW) 4,700 - -70.8°
Reaches altitude 10° 04:39:34 10° 242° (WSW) 3,737 - -70.8°
Maximum altitude 04:49:06 89° 159° (SSE) 1,603 - -70.6°
Drops below altitude 10° 04:59:04 10° 66° (ENE) 3,887 - -70.3°
Sets 05:02:15 0° 66° (ENE) 4,895 - -70.1°
Exits shadow 05:02:21 - 66° (ENE) 4,927 11.8 -70.1°
